TimeCST,TemperatureF,Dew PointF,Humidity,Sea Level PressureIn,VisibilityMPH,Wind Direction,Wind SpeedMPH,Gust SpeedMPH,PrecipitationIn,Events,Conditions,WindDirDegrees,DateUTC
6:00 AM,65,64,94,29.82,12,East,3.5,,,,,100,2012-12-07 12:00:00
6:00 AM,66.2,64.4,94,29.81,-9999.0,East,3.5,-,N/A,,Clear,100,2012-12-07 12:00:00
7:00 AM,71.6,66.2,83,29.83,-9999.0,SSE,3.5,-,N/A,,Clear,150,2012-12-07 13:00:00
8:00 AM,75.2,68.0,78,29.84,-9999.0,SW,4.6,-,N/A,,Clear,230,2012-12-07 14:00:00
9:00 AM,80,67,56,29.86,12,NW,6.9,,,,Scattered Clouds,310,2012-12-07 15:00:00
9:00 AM,80.6,66.2,61,29.85,-9999.0,NW,6.9,-,N/A,,Clear,310,2012-12-07 15:00:00
10:00 AM,84.2,66.2,55,29.84,-9999.0,West,3.5,-,N/A,,Clear,280,2012-12-07 16:00:00
11:00 AM,86.0,66.2,51,29.81,-9999.0,West,4.6,-,N/A,,Clear,260,2012-12-07 17:00:00
12:00 PM,89,65,34,29.80,12,West,4.6,,,,,270,2012-12-07 18:00:00
12:00 PM,87.8,64.4,46,29.79,-9999.0,West,4.6,-,N/A,,Clear,270,2012-12-07 18:00:00
1:00 PM,87.8,64.4,46,29.76,6.2,ESE,11.5,-,N/A,,Partly Cloudy,110,2012-12-07 19:00:00
2:00 PM,87.8,64.4,46,29.74,6.2,East,11.5,-,N/A,,Partly Cloudy,100,2012-12-07 20:00:00
3:00 PM,88,64,35,29.74,12,East,12.7,,,,Scattered Clouds,80,2012-12-07 21:00:00
3:00 PM,87.8,64.4,46,29.72,6.2,East,12.7,-,N/A,,Partly Cloudy,80,2012-12-07 21:00:00
4:00 PM,86.0,64.4,48,29.73,6.2,East,9.2,-,N/A,,Partly Cloudy,90,2012-12-07 22:00:00
5:00 PM,84.2,64.4,51,29.74,-9999.0,East,8.1,-,N/A,,Clear,100,2012-12-07 23:00:00
6:00 PM,79,65,53,29.78,12,East,5.8,,,,Scattered Clouds,90,2012-12-08 00:00:00
6:00 PM,78.8,64.4,61,29.76,-9999.0,East,5.8,-,N/A,,Clear,90,2012-12-08 00:00:00
7:00 PM,78.8,64.4,61,29.79,-9999.0,East,3.5,-,N/A,,Clear,90,2012-12-08 01:00:00
8:00 PM,78.8,68.0,69,29.80,-9999.0,ESE,9.2,-,N/A,,Clear,120,2012-12-08 02:00:00